Regional Weather Roundup
Issued by NWS Jackson, KY

Home | Current Version | Previous Version | Graphics & Text | Print | Product List | Glossary On
Versions: 1 2 3 4 5 6 7 8 9 10 11 12 13 14 15 16 17 18 19 20 21 22 23 24 25 26 27 28 29 30 31 32 33 34 35 36 37 38 39 40 41 42 43 44 45 46 47 48 49 50
000
ASUS43 KJKL 052010
RWRJKL

EAST KENTUCKY HOURLY WEATHER ROUNDUP
NATIONAL WEATHER SERVICE JACKSON KY
400 PM EDT THU MAY 05 2016

NOTE: "FAIR" INDICATES FEW OR NO CLOUDS BELOW 12,000 FEET WITH
NO SIGNIFICANT WEATHER AND/OR OBSTRUCTIONS TO VISIBILITY.

* THESE REPORTS ARE NOT UNDER NWS QUALITY CONTROL AND MAY NOT
  REPORT WEATHER SUCH AS PRECIPITATION AND FOG.

KYZ079-080-083-085-087-088-110-112-115-119-120-052100
...EASTERN KENTUCKY...

CITY           SKY/WX    TMP DP  RH WIND       PRES   REMARKS
JACKSON        PTSUNNY   52  37  56 VRB6      29.81S
LONDON         CLOUDY    52  38  58 N17G24    29.83R
MONTICELLO*    CLOUDY    51  42  71 N15G22    29.89R
WILLIAMSBURG*  CLOUDY    50  41  71 NW8       29.84R
MIDDLESBORO*   LGT RAIN  52  44  75 N12       29.82R
HARLAN APT*    MOCLDY    50  41  71 W9G17     29.79S
BLACK MTN*       N/A     37  37 100 NW9         N/A  WCI  31
PIKE CO APT*   DRIZZLE   49  39  68 NW8       29.78S
BIG SANDY APT* DRIZZLE   51  40  66 NW5       29.79S
MOREHEAD APT*  CLOUDY    54  39  58 NW8       29.84R
$$

KYZ035-036-041-042-044-050-067-078-099-052100
...CENTRAL KENTUCKY...

CITY           SKY/WX    TMP DP  RH WIND       PRES   REMARKS
FLEMING/MASON* CLOUDY    52  41  65 NW9       29.85R
DANVILLE*      CLOUDY    50  37  62 N8G16     29.88R
RICHMOND*      CLOUDY    52  39  62 NW8       29.86R
LEXINGTON      CLOUDY    54  39  57 NW13      29.86R
FRANKFORT      CLOUDY    55  40  56 N12       29.87R
LOUISVILLE     PTSUNNY   57  43  59 N20G28    29.90S
LEBANON*       CLOUDY    54  41  62 NW13      29.89S
BOWLING GREEN  PTSUNNY   60  40  47 N8        29.91S
$$

KYZ091>093-OHZ055-061-077-WVZ005-015-034-035-042-052100
...SOUTHERN OHIO/WEST VIRGINIA...

CITY           SKY/WX    TMP DP  RH WIND       PRES   REMARKS
COVINGTON      CLOUDY    51  44  77 NW10      29.87S
COLUMBUS       PTSUNNY   56  48  74 NW15      29.79S
DAYTON         PTSUNNY   58  46  64 N12       29.85S
WILMINGTON     CLOUDY    51  45  79 NW9       29.83S HAZE
HUNTINGTON     CLOUDY    56  40  55 NW9G17    29.77S
CHARLESTON     LGT RAIN  49  44  83 W6        29.75S
BECKLEY        LGT RAIN  41  38  89 NW10      29.73S
$$

VAZ002-007-008-TNZ017-027-036-066-071-052100
...SOUTHWEST VIRGINIA/EAST TENNESSEE...

CITY           SKY/WX    TMP DP  RH WIND       PRES   REMARKS
WISE*          CLOUDY    48  32  53 NW12G17   29.76F
BRISTOL        CLOUDY    55  37  50 VRB6      29.73F
MORRISTOWN*    MOCLDY    54  43  66 N8        29.76S
SEVIERVILLE*   MOCLDY    52  45  76 SE6       29.77S
KNOXVILLE      PTSUNNY   50  43  77 NW8       29.79R
OAK RIDGE      PTSUNNY   55  43  63 VRB5      29.82R
CROSSVILLE     CLOUDY    45  39  79 NW9       29.86R
NASHVILLE      PTSUNNY   59  38  45 N14       29.92S
$$

...KEY TO REMARKS...
VSB - VISIBILITY IN MILES
WCI - WIND CHILL INDEX
HX  - HEAT INDEX

$$



USA.gov is the U.S. government's official web portal to all federal, state and local government web resources and services.